Weather History for EGLL - November, 2011

Change the Weather History Date:

Monday, November 14, 2011

  Actual Average Record
Temperature  
Mean Temperature 48 °F -  
Max Temperature 50 °F 48 °F 59 °F (2006)
Min Temperature 44 °F 38 °F 30 °F (1996)
Degree Days  
Heating Degree Days 17    
Moisture  
Dew Point 46 °F    
Average Humidity 91    
Maximum Humidity 94    
Minimum Humidity 82    
Precipitation  
Precipitation 0.00 in - - ()
Sea Level Pressure  
Sea Level Pressure 30.21 in    
Wind  
Wind Speed 7 mph ()    
Max Wind Speed 10 mph    
Max Gust Speed -    
Visibility 2.4 miles    
Events Rain    
Averages and records for this station are not official NWS values.
T = Trace of Precipitation, MM = Missing Value Source: Averaged Metar Reports

Daily Weather History Graph

Daily Weather History Graph

Search for Another Location

Airport or City:

Trip Planner

Search our weather history database for the weather conditions in past years. The results will help you decide how hot, cold, wet, or windy it might be!

Date:

Astronomy

Nov. 14, 2011 Rise Set
Actual Time 7:17 AM GMT 4:14 PM GMT
Civil Twilight 6:40 AM GMT 4:51 PM GMT
Nautical Twilight 5:59 AM GMT 5:31 PM GMT
Astronomical Twilight 5:20 AM GMT 6:10 PM GMT
Moon 6:56 PM GMT (11/14) 10:36 AM GMT (11/14)
Length of Visible Light 10h 10m
Length of Day
8h 57m
Waning Gibbous, 88% of the Moon is Illuminated
Nov 14
Waning Gibbous
Nov 18
Last Quarter
Nov 25
New
Dec 2
First Quarter
Dec 10
Full

Hourly Weather History & Observations

Time (GMT) Temp. Windchill Dew Point Humidity Pressure Visibility Wind Dir Wind Speed Gust Speed Precip Events Conditions
12:20 AM 50.0 °F - 46.4 °F 87% 30.27 in 1.9 mi East 8.1 mph - N/A   Haze
12:50 AM 50.0 °F - 46.4 °F 87% 30.27 in 2.2 mi East 9.2 mph - N/A   Haze
1:20 AM 50.0 °F - 46.4 °F 87% 30.27 in 2.5 mi East 5.8 mph - N/A   Haze
1:50 AM 50.0 °F - 46.4 °F 87% 30.27 in - East 6.9 mph - N/A   Haze
2:20 AM 50.0 °F - 46.4 °F 87% 30.27 in 3.1 mi East 8.1 mph - N/A   Overcast
2:50 AM 49 °F - 46 °F 87% 30.26 in 4 mi East 6.9 mph - -   Light Haze
2:50 AM 50.0 °F - 46.4 °F 87% 30.24 in 3.1 mi East 8.1 mph - N/A   Haze
3:20 AM 48.2 °F - 44.6 °F 87% 30.24 in 3.1 mi East 5.8 mph - N/A   Haze
3:50 AM 48.2 °F - 46.4 °F 93% 30.24 in 2.2 mi East 8.1 mph - N/A   Haze
4:20 AM 48.2 °F - 46.4 °F 93% 30.24 in 2.2 mi East 8.1 mph - N/A   Haze
4:50 AM 48.2 °F - 46.4 °F 93% 30.24 in - East 6.9 mph - N/A   Haze
5:20 AM 46.4 °F 43.5 °F 44.6 °F 93% 30.24 in - ENE 5.8 mph - N/A   Haze
5:50 AM 47 °F - 45 °F 90% 30.26 in 4 mi East 5.8 mph - -   Light Haze
5:50 AM 46.4 °F 42.9 °F 44.6 °F 93% 30.24 in 2.5 mi East 6.9 mph - N/A   Haze
6:20 AM 46.4 °F 42.4 °F 44.6 °F 93% 30.24 in 3.1 mi East 8.1 mph - N/A   Haze
6:50 AM 46.4 °F 41.9 °F 44.6 °F 93% 30.24 in 3.7 mi ESE 9.2 mph - N/A   Mostly Cloudy
7:20 AM 46.4 °F 41.9 °F 44.6 °F 93% 30.24 in - ESE 9.2 mph - N/A   Haze
7:50 AM 46.4 °F 42.9 °F 44.6 °F 93% 30.24 in - East 6.9 mph - N/A   Haze
8:20 AM 46.4 °F 41.9 °F 44.6 °F 93% 30.24 in 2.2 mi ESE 9.2 mph - N/A   Haze
8:50 AM 47 °F - 45 °F 91% 30.25 in 5 mi ESE 10.4 mph - -   Light Haze
8:50 AM 46.4 °F 42.4 °F 44.6 °F 93% 30.24 in - ESE 8.1 mph - N/A   Haze
9:20 AM 46.4 °F 41.9 °F 44.6 °F 93% 30.24 in 1.8 mi ESE 9.2 mph - N/A   Haze
9:50 AM 46.4 °F 41.9 °F 44.6 °F 93% 30.24 in 1.8 mi East 9.2 mph - N/A   Mostly Cloudy
10:20 AM 46.4 °F 41.5 °F 44.6 °F 93% 30.24 in 1.9 mi East 10.4 mph - N/A   Mostly Cloudy
10:50 AM 46.4 °F 43.5 °F 44.6 °F 93% 30.24 in 1.9 mi ESE 5.8 mph - N/A   Mostly Cloudy
11:20 AM 48.2 °F - 46.4 °F 93% 30.21 in - ESE 6.9 mph - N/A   Haze
11:50 AM 48 °F - 46 °F 92% 30.22 in 3 mi East 6.9 mph - - Rain Drizzle
11:50 AM 48.2 °F - 46.4 °F 93% 30.21 in - East 6.9 mph - N/A   Haze
12:20 PM 48.2 °F - 46.4 °F 93% 30.21 in 1.9 mi East 8.1 mph - N/A   Haze
12:50 PM 48.2 °F - 46.4 °F 93% 30.18 in 1.7 mi East 8.1 mph - N/A   Haze
1:20 PM 48.2 °F - 46.4 °F 93% 30.18 in 2.5 mi East 9.2 mph - N/A   Haze
1:50 PM 48.2 °F - 46.4 °F 93% 30.18 in - East 8.1 mph - N/A   Haze
2:20 PM 48.2 °F - 46.4 °F 93% 30.18 in 1.8 mi East 6.9 mph - N/A   Haze
2:50 PM 50 °F - 48 °F 89% 30.19 in 3 mi East 6.9 mph - -   Light Haze
2:50 PM 50.0 °F - 48.2 °F 94% 30.18 in - East 8.1 mph - N/A   Haze
3:20 PM 50.0 °F - 48.2 °F 94% 30.18 in 1.6 mi East 8.1 mph - N/A   Haze
3:50 PM 50.0 °F - 48.2 °F 94% 30.18 in 1.6 mi East 8.1 mph - N/A   Haze
4:20 PM 50.0 °F - 48.2 °F 94% 30.18 in 1.7 mi East 6.9 mph - N/A   Haze
4:50 PM 50.0 °F - 48.2 °F 94% 30.18 in 1.3 mi ENE 8.1 mph - N/A   Mostly Cloudy
5:20 PM 50.0 °F - 48.2 °F 94% 30.18 in 1.8 mi ENE 9.2 mph - N/A   Mostly Cloudy
5:50 PM 50 °F - 48 °F 91% 30.18 in 2 mi ENE 9.2 mph - -   Mist
5:50 PM 50.0 °F - 48.2 °F 94% 30.18 in 1.4 mi ENE 10.4 mph - N/A   Mostly Cloudy
6:20 PM 50.0 °F - 48.2 °F 94% 30.18 in 1.4 mi ENE 9.2 mph - N/A   Mostly Cloudy
6:50 PM 50.0 °F - 48.2 °F 94% 30.15 in 1.8 mi ENE 9.2 mph - N/A   Mostly Cloudy
7:20 PM 50.0 °F - 48.2 °F 94% 30.15 in 1.8 mi ENE 9.2 mph - N/A   Mostly Cloudy
7:50 PM 50.0 °F - 48.2 °F 94% 30.15 in 1.4 mi East 9.2 mph - N/A   Mostly Cloudy
8:20 PM 50.0 °F - 48.2 °F 94% 30.15 in 1.3 mi East 10.4 mph - N/A   Mostly Cloudy
8:50 PM 50.0 °F - 48.2 °F 94% 30.15 in 1.4 mi East 10.4 mph - N/A   Mostly Cloudy
9:20 PM 50.0 °F - 46.4 °F 87% 30.15 in - East 8.1 mph - N/A   Haze
9:50 PM 50.0 °F - 46.4 °F 87% 30.15 in - ENE 6.9 mph - N/A   Haze
10:20 PM 50.0 °F - 44.6 °F 82% 30.15 in 3.1 mi East 8.1 mph - N/A   Haze
10:50 PM 48.2 °F - 44.6 °F 87% 30.15 in 3.1 mi East 9.2 mph - N/A   Haze
11:20 PM 46.4 °F 42.4 °F 42.8 °F 87% 30.15 in 3.1 mi East 8.1 mph - N/A   Haze
11:50 PM 46 °F - 44 °F 88% 30.15 in 3 mi East 8.1 mph - -   Light Haze
11:50 PM 44.6 °F 40.2 °F 42.8 °F 93% 30.15 in 2.8 mi East 8.1 mph - N/A   Haze